User: anonymous   Login
Location: Standeford and Andreas Observatories
(44.1397°N, 93.9969°W)
Time: 06:58:15
(UTC-05:00)
Language:

Cosmos 1500 Rocket - Orbit

View from above orbital plane
View from above orbital plane
View from above satellite
View from above satellite

Ground track
Ground track

The orbit data is extracted from the following two-line orbital elements,

1 14373U 83099B   17235.21223477  .00000096  00000-0  86267-5 0  9992
2 14373  82.5425 181.9130 0020493  10.1126 125.1476 14.83686321830816
Epoch (UTC): 23 August 2017 05:05:37
Eccentricity: 0.0020493
inclination: 82.5425°
perigee height: 603 km
apogee height: 632 km
right ascension of ascending node: 181.9130°
argument of perigee: 10.1126°
revolutions per day: 14.83686321
mean anomaly at epoch: 125.1476°
orbit number at epoch: 83081

The dashed part of the orbit path shows where the satellite is in the earth's shadow,  

DLR